Glasgow, MT

9:29 AM MDT on July 29, 2016 (GMT -0600)
Wokal-Glasgow International

Weather History for KGGW - November, 2013

Change the Weather History Date:

Tuesday, November 26, 2013

  Actual Average Record
Temperature  
Mean Temperature 18 °F 24 °F  
Max Temperature 29 °F 34 °F 70 °F (1914)
Min Temperature 7 °F 14 °F -30 °F (1897)
Degree Days  
Heating Degree Days 47 41  
Month to date heating degree days 956 899  
Since 1 July heating degree days 1761 1823  
Cooling Degree Days 0 0  
Month to date cooling degree days 0 0  
Year to date cooling degree days 563 533  
Moisture  
Dew Point 14 °F    
Average Humidity 78    
Maximum Humidity 92    
Minimum Humidity 63    
Precipitation  
Precipitation 0.00 in 0.01 in 0.15 in (1896)
Month to date precipitation 0.34 0.35  
Year to date precipitation 15.00 11.21  
Snow  
Snow 0.00 in 0.20 in 2.40 in (2004)
Month to date snowfall 3.6 4.2  
Since 1 July snowfall 3.7 5.7  
Since 1 September snowfall 3.7 5.7  
Snow Depth 1.00 in    
Sea Level Pressure  
Sea Level Pressure 30.38 in    
Wind  
Wind Speed 12 mph (ESE)    
Max Wind Speed 18 mph    
Max Gust Speed 22 mph    
Visibility 10 miles    
Events      
T = Trace of Precipitation, MM = Missing Value Source: NWS Daily Summary

Daily Weather History Graph

Daily Weather History Graph

Search for Another Location

Airport or City:

Trip Planner

Search our weather history database for the weather conditions in past years. The results will help you decide how hot, cold, wet, or windy it might be!

Date:

Astronomy

Nov. 26, 2013 Rise Set
Actual Time 7:29 AM MST 4:17 PM MST
Civil Twilight 6:54 AM MST 4:52 PM MST
Nautical Twilight 6:15 AM MST 5:31 PM MST
Astronomical Twilight 5:38 AM MST 6:08 PM MST
Moon 12:06 AM MST (11/26) 12:53 PM MST (11/26)
Length of Visible Light 9h 58m
Length of Day
8h 47m
Last Quarter, 40% of the Moon is Illuminated
Nov 26
Last Quarter
Dec 2
New
Dec 9
First Quarter
Dec 17
Full
Dec 25
Last Quarter

Hourly Weather History & Observations

Time (MST) Temp. Windchill Dew Point Humidity Pressure Visibility Wind Dir Wind Speed Gust Speed Precip Events Conditions
12:53 AM 21.9 °F - 17.1 °F 82% 30.52 in 10.0 mi Calm Calm - N/A   Overcast
1:53 AM 18.0 °F 7.7 °F 15.1 °F 88% 30.54 in 10.0 mi ENE 8.1 mph - N/A   Mostly Cloudy
2:53 AM 12.0 °F -0.4 °F 10.9 °F 95% 30.55 in 10.0 mi ENE 9.2 mph - N/A   Mostly Cloudy
3:53 AM 9.0 °F -4.2 °F 7.0 °F 92% 30.56 in 10.0 mi East 9.2 mph - N/A   Scattered Clouds
4:53 AM 10.9 °F -0.8 °F 9.0 °F 92% 30.56 in 10.0 mi ENE 8.1 mph - N/A   Mostly Cloudy
5:53 AM 9.0 °F -2.2 °F 7.0 °F 92% 30.56 in 10.0 mi East 6.9 mph - N/A   Clear
6:53 AM 7.0 °F -6.6 °F 5.0 °F 92% 30.56 in 10.0 mi East 9.2 mph - N/A   Mostly Cloudy
7:53 AM 10.0 °F -3.7 °F 7.0 °F 87% 30.56 in 10.0 mi East 10.4 mph - N/A   Clear
8:53 AM 14.0 °F 0.5 °F 10.9 °F 88% 30.55 in 10.0 mi East 11.5 mph - N/A   Clear
9:53 AM 18.0 °F 4.8 °F 15.1 °F 88% 30.53 in 10.0 mi ESE 12.7 mph - N/A   Clear
10:12 AM 19.0 °F 5.0 °F 15.1 °F 85% 30.40 in 10.0 mi ESE 15.0 mph - N/A   Mostly Cloudy
10:22 AM 19.0 °F 5.6 °F 15.1 °F 85% 30.40 in 10.0 mi ESE 13.8 mph - N/A   Overcast
10:38 AM 19.9 °F 6.7 °F 15.1 °F 81% 30.39 in 10.0 mi ESE 13.8 mph - N/A   Overcast
10:53 AM 21.0 °F 8.1 °F 15.1 °F 78% 30.51 in 10.0 mi ESE 13.8 mph - N/A   Scattered Clouds
12:53 PM 27.0 °F 15.6 °F 19.0 °F 72% 30.42 in 10.0 mi ESE 13.8 mph - N/A   Clear
1:53 PM 28.0 °F 17.0 °F 19.0 °F 69% 30.38 in 10.0 mi SE 13.8 mph - N/A   Clear
2:53 PM 28.9 °F 18.2 °F 18.0 °F 64% 30.35 in 10.0 mi ESE 13.8 mph - N/A   Clear
3:53 PM 28.0 °F 17.5 °F 18.0 °F 66% 30.32 in 10.0 mi SE 12.7 mph - N/A   Clear
4:53 PM 23.0 °F 11.1 °F 16.0 °F 74% 30.30 in 10.0 mi ESE 12.7 mph - N/A   Clear
5:53 PM 25.0 °F 12.2 °F 18.0 °F 75% 30.27 in 10.0 mi ESE 16.1 mph - N/A   Clear
6:53 PM 23.0 °F 9.6 °F 17.1 °F 78% 30.23 in 10.0 mi ESE 16.1 mph - N/A   Clear
7:53 PM 23.0 °F 9.6 °F 17.1 °F 78% 30.19 in 10.0 mi ESE 16.1 mph - N/A   Clear
8:53 PM 21.9 °F 8.7 °F 17.1 °F 82% 30.15 in 10.0 mi ESE 15.0 mph - N/A   Clear
9:53 PM 21.0 °F 8.1 °F 16.0 °F 81% 30.12 in 10.0 mi East 13.8 mph - N/A   Clear
10:53 PM 21.9 °F 9.8 °F 17.1 °F 82% 30.08 in 10.0 mi ESE 12.7 mph - N/A   Clear
11:53 PM 21.9 °F 10.4 °F 17.1 °F 82% 30.06 in 10.0 mi ESE 11.5 mph - N/A   Clear